Back to catalog

STARLINK-37924

AliveCommunicationsSSO
NORAD 69569·PAYLOAD·🇺🇸 United States

Launched Jun 15, 2026 from Vandenberg Space Force Base

Loading…

Next Passes (next 24 hours)

TLE

FreshSource: CelesTrak SupGP

Epoch: Sep 14, 2026, 15:05 UTC

1 69569C 26135Z   26257.62895833 -.00023841  00000+0 -74005-3 0  2573
2 69569  97.2843 285.4773 0001202 105.5166 324.1144 15.33452545    12

Track STARLINK-37924 in real time with AllMySat

Download on the App Store